Location: Elstree
(51.6403°N, 0.2969°W)
Time: 19:10:46
(UTC+00:00)

Lacrosse 4 Rocket - Pass Details

Date: 03 March 2021
Orbit: 537 x 620 km, 68.0° (Epoch: 17 April)

Event Time Altitude Azimuth Distance (km) Brightness Sun altitude
Rises 19:11:24 0° 170° (S) 2,825 4.8 -14.1°
Reaches altitude 10° 19:14:09 10° 152° (SSE) 1,944 3.8 -14.6°
Enters shadow 19:14:28 11° 148° (SSE) 1,861 3.6 -14.6°
